Home > Time Zones > World Clock > Weather > Spain > Jaén > Past weeks

Flag for Spain Weather past 2 weeks in Jaén, Spain

Now
81 °F

Clear.


Feels Like: 81 °F
Forecast: 65 / 94 °F
Wind: 5 mph from Southwest

Location: Granada / Aeropuerto

Current Time: Jul 31, 2014 at 12:14:46 AM

Latest Report: Jul 30, 2014 at 11:00 PM


Visibility: 10 mi

Pressure: 29.98 "Hg

Humidity: 42%

Dew point: 55 °F

Location of JaénLocation

Historic Weather in Jaén — Graph

°F

Jaén temperature yesterday

Maximum temperature yesterday: 95 °F (at 4:00 PM)
Minimum temperature yesterday: 64 °F (at 7:00 AM)
Average temperature yesterday: 83 °F

Past Weeks' High & Low Weather Summary

 TemperatureHumidityPressure
High108 °F (Jul 17, 5:00 PM)94% (Jul 20, 7:30 AM)30.15 "Hg (Jul 20, 7:30 AM)
Low55 °F (Jul 21, 6:30 AM)10% (Jul 18, 5:30 PM)29.83 "Hg (Jul 24, 4:30 PM)
Average84 °F37%30.00 "Hg
* Reported Jul 15 11:00 PM — Jul 30 11:00 PM, Jaén, Weather by CustomWeather, © 2014

Note: Actual official high and low records may vary slightly from our data, if they occured in-between our weather recording intervals... More about our weather records

Advertising

Jaén weather history for previous 24 hours

 ConditionsComfort  
Time TempWeatherWind HumidityBarometerVisibility
11:00 PM
Jul 30
81 °FClear.5 mph42%29.98 "Hg10 mi
10:30 PM81 °FClear.3 mph39%29.98 "Hg10 mi
10:00 PM82 °FSunny.3 mph37%29.98 "Hg10 mi
9:30 PM84 °FPassing clouds.6 mph35%29.95 "HgN/A
9:00 PM88 °FPassing clouds.9 mph33%29.95 "HgN/A
8:30 PM90 °FPassing clouds.10 mph33%29.95 "HgN/A
7:30 PM93 °FPassing clouds.9 mph30%29.92 "HgN/A
7:00 PM93 °FPassing clouds.12 mph30%29.92 "HgN/A
6:30 PM95 °FPassing clouds.8 mph30%29.95 "HgN/A
6:00 PM95 °FPassing clouds.9 mph30%29.95 "HgN/A
5:30 PM95 °FPassing clouds.6 mph30%29.95 "HgN/A
5:00 PM95 °FPassing clouds.8 mph26%29.95 "HgN/A
4:30 PM95 °FPassing clouds.2 mph25%29.95 "HgN/A
4:00 PM95 °FPassing clouds.6 mph26%29.95 "HgN/A
3:30 PM93 °FPassing clouds.6 mph34%29.95 "HgN/A
3:00 PM91 °FPassing clouds.3 mph36%29.95 "HgN/A
2:30 PM91 °FPassing clouds.3 mph41%29.98 "HgN/A
2:00 PM90 °FPassing clouds.3 mph43%29.98 "HgN/A
1:30 PM88 °FPassing clouds.3 mph46%29.98 "HgN/A
1:00 PM86 °FPassing clouds.1 mph49%29.98 "HgN/A
12:30 PM84 °FPassing clouds.2 mph55%30.01 "HgN/A
12:00 PM82 °FPassing clouds.2 mph58%30.01 "HgN/A
11:30 AM82 °FPassing clouds.2 mph58%30.01 "HgN/A
11:00 AM79 °FPassing clouds.1 mph65%30.01 "HgN/A
10:30 AM79 °FPassing clouds.1 mph61%30.01 "HgN/A
10:00 AM77 °FPassing clouds.1 mph65%30.01 "HgN/A
9:30 AM73 °FPassing clouds.No wind69%30.01 "HgN/A
9:00 AM70 °FPassing clouds.No wind73%30.01 "Hg6 mi
8:30 AM68 °FPassing clouds.No wind73%30.01 "Hg6 mi
8:00 AM64 °FPassing clouds.No wind83%30.01 "Hg6 mi
7:30 AM64 °FClear.No wind83%29.98 "Hg10 mi
7:00 AM64 °FClear.No wind83%29.98 "Hg10 mi
6:30 AM66 °FClear.1 mph73%29.98 "Hg10 mi
6:00 AM66 °FClear.1 mph73%29.98 "Hg10 mi
Weather by CustomWeather, © 2014

See weather overviewHow to use our weather pages